Location: Observatory
(52.1446°N, 0.4624°W)
Time: 16:41:37
(UTC+01:00)

ISS - Pass Details

Date: 26 May 2020
Orbit: 417 x 420 km, 51.6° (Epoch: 26 May)

Event Time Altitude Azimuth Distance (km) Brightness Sun altitude
Rises 00:30:47 0° 279° (W) 2,369 0.3 -16.4°
Reaches altitude 10° 00:33:29 10° 256° (WSW) 1,501 -1.0 -16.5°
Enters shadow 00:34:16 13° 244° (WSW) 1,334 -1.4 -16.5°
